Location: Dampvalley
(47.9094°N, 6.1967°E)
Time: 21:38:59
(UTC+00:00)

Envisat - Pass Details

Date: 05 December 2022
Orbit: 763 x 765 km, 98.2° (Epoch: 04 February)

Event Time Altitude Azimuth Distance (km) Brightness Sun altitude
Rises 03:05:12 0° 22° (NNE) 3,245 6.6 -39.7°
Reaches altitude 10° 03:07:46 10° 32° (NNE) 2,314 5.8 -39.3°
Enters shadow 03:08:31 14° 37° (NE) 2,061 5.6 -39.2°
